Rogers City, MI

12:13 AM EDT on August 17, 2017 (GMT -0400)
Presque Isle County

Weather History for KPZQ - January, 2014

Change the Weather History Date:

Friday, January 31, 2014

  Actual Average (KAPN) Record (KAPN)
Temperature  
Mean Temperature 8 °F -  
Max Temperature 20 °F 28 °F 50 °F (1989)
Min Temperature -4 °F 10 °F -25 °F (1994)
Degree Days  
Heating Degree Days 57    
Moisture  
Dew Point 7 °F    
Average Humidity 78    
Maximum Humidity 91    
Minimum Humidity 64    
Precipitation  
Precipitation 0.00 in - - ()
Sea Level Pressure  
Sea Level Pressure 29.98 in    
Wind  
Wind Speed 7 mph (West)    
Max Wind Speed 13 mph    
Max Gust Speed 20 mph    
Visibility 9 miles    
Events Snow    
Averages and records for this station are not official NWS values.
T = Trace of Precipitation, MM = Missing Value Source: NWS Daily Summary

Daily Weather History Graph

Daily Weather History Graph

Search for Another Location

Airport or City:

Trip Planner

Search our weather history database for the weather conditions in past years. The results will help you decide how hot, cold, wet, or windy it might be!

Date:

Astronomy

Jan. 31, 2014 Rise Set
Actual Time 7:57 AM EST 5:40 PM EST
Civil Twilight 7:25 AM EST 6:12 PM EST
Nautical Twilight 6:50 AM EST 6:47 PM EST
Astronomical Twilight 6:15 AM EST 7:22 PM EST
Moon 8:01 AM EST (1/31) 7:10 PM EST (1/31)
Length of Visible Light 10h 46m
Length of Day
9h 43m
New Moon, 1% of the Moon is Illuminated
Jan 31
New Moon
Feb 6
First Quarter
Feb 14
Full
Feb 22
Last Quarter
Mar 1
New

Hourly Weather History & Observations

Time (EST) Temp. Windchill Dew Point Humidity Pressure Visibility Wind Dir Wind Speed Gust Speed Precip Events Conditions
12:15 AM 20.7 °F 10.2 °F 16.7 °F 85% 29.71 in 5.0 mi NW 9.2 mph - N/A Snow Light Snow
12:34 AM 20.1 °F 8.8 °F 16.2 °F 85% 29.73 in 5.0 mi WNW 10.4 mph 18.4 mph N/A Snow Light Snow
12:55 AM 19.2 °F 6.4 °F 15.3 °F 85% 29.74 in 4.0 mi WNW 12.7 mph 18.4 mph N/A Snow Light Snow
1:14 AM 18.5 °F 8.4 °F 14.5 °F 85% 29.76 in 7.0 mi West 8.1 mph - N/A Snow Light Snow
1:35 AM 17.4 °F 7.1 °F 13.5 °F 84% 29.76 in 5.0 mi West 8.1 mph - N/A Snow Light Snow
1:55 AM 17.1 °F 4.3 °F 12.7 °F 83% 29.77 in 7.0 mi West 11.5 mph 19.6 mph N/A Snow Light Snow
2:14 AM 16.5 °F 6.0 °F 12.2 °F 83% 29.80 in 7.0 mi West 8.1 mph - N/A Snow Light Snow
2:35 AM 15.8 °F 3.4 °F 11.1 °F 82% 29.81 in 10.0 mi West 10.4 mph 17.3 mph N/A   Overcast
2:54 AM 15.4 °F 3.0 °F 10.4 °F 80% 29.83 in 10.0 mi West 10.4 mph - N/A Snow Light Snow
3:15 AM 14.9 °F 4.0 °F 9.5 °F 79% 29.84 in 10.0 mi WNW 8.1 mph 16.1 mph N/A   Overcast
3:35 AM 14.5 °F 4.6 °F 9.0 °F 79% 29.84 in 10.0 mi WNW 6.9 mph 16.1 mph N/A   Overcast
3:54 AM 14.2 °F 0.7 °F 8.6 °F 78% 29.86 in 10.0 mi WNW 11.5 mph 18.4 mph N/A   Overcast
4:15 AM 13.8 °F 0.2 °F 8.2 °F 78% 29.87 in 10.0 mi West 11.5 mph 16.1 mph N/A Snow Light Snow
4:34 AM 13.6 °F 2.5 °F 7.7 °F 77% 29.87 in 10.0 mi West 8.1 mph - N/A Snow Light Snow
4:55 AM 13.5 °F 1.3 °F 7.5 °F 77% 29.88 in 10.0 mi West 9.2 mph - N/A Snow Light Snow
5:15 AM 13.6 °F 0.7 °F 7.2 °F 75% 29.89 in 10.0 mi WNW 10.4 mph 17.3 mph N/A   Overcast
5:34 AM 13.6 °F 1.6 °F 7.2 °F 75% 29.90 in 10.0 mi WNW 9.2 mph - N/A   Overcast
5:55 AM 13.6 °F 1.6 °F 7.5 °F 77% 29.91 in 10.0 mi West 9.2 mph - N/A   Overcast
6:15 AM 13.6 °F 4.6 °F 7.7 °F 77% 29.92 in 10.0 mi West 5.8 mph - N/A   Overcast
6:34 AM 13.6 °F 6.0 °F 7.7 °F 77% 29.92 in 10.0 mi West 4.6 mph - N/A   Overcast
6:55 AM 13.6 °F 6.0 °F 7.9 °F 78% 29.93 in 10.0 mi WNW 4.6 mph - N/A   Overcast
7:15 AM 13.5 °F 3.3 °F 7.7 °F 78% 29.93 in 10.0 mi West 6.9 mph - N/A   Overcast
7:34 AM 13.5 °F 4.4 °F 7.7 °F 78% 29.95 in 10.0 mi West 5.8 mph - N/A   Overcast
7:55 AM 13.3 °F 4.2 °F 7.3 °F 77% 29.96 in 10.0 mi West 5.8 mph - N/A Snow Light Snow
8:14 AM 13.1 °F 5.4 °F 7.3 °F 78% 29.97 in 10.0 mi WNW 4.6 mph - N/A   Overcast
8:35 AM 13.5 °F 4.4 °F 7.5 °F 77% 29.99 in 10.0 mi West 5.8 mph - N/A Snow Light Snow
8:54 AM 13.5 °F 7.5 °F 7.7 °F 78% 30.00 in 10.0 mi WSW 3.5 mph - N/A Snow Light Snow
9:15 AM 14.0 °F 6.5 °F 7.7 °F 76% 30.00 in 10.0 mi WSW 4.6 mph - N/A Snow Light Snow
9:34 AM 14.0 °F 6.5 °F 7.9 °F 77% 30.00 in 10.0 mi West 4.6 mph - N/A Snow Light Snow
9:55 AM 14.9 °F 7.5 °F 8.6 °F 76% 30.01 in 7.0 mi West 4.6 mph - N/A Snow Light Snow
10:15 AM 14.9 °F 6.1 °F 8.6 °F 76% 30.03 in 7.0 mi West 5.8 mph - N/A Snow Light Snow
10:34 AM 14.9 °F 4.0 °F 8.6 °F 76% 30.04 in 7.0 mi WSW 8.1 mph - N/A Snow Light Snow
10:55 AM 15.1 °F 3.3 °F 8.8 °F 76% 30.04 in 7.0 mi WSW 9.2 mph - N/A Snow Light Snow
11:14 AM 15.8 °F 10.2 °F 9.3 °F 76% 30.05 in 5.0 mi West 3.5 mph - N/A Snow Light Snow
11:35 AM 16.7 °F 11.2 °F 10.0 °F 75% 30.05 in 7.0 mi West 3.5 mph - N/A Snow Light Snow
11:55 AM 17.2 °F 8.9 °F 10.2 °F 74% 30.05 in 5.0 mi WSW 5.8 mph - N/A Snow Light Snow
12:14 PM 18.0 °F 12.7 °F 10.6 °F 73% 30.04 in 4.0 mi West 3.5 mph - N/A Snow Light Snow
12:35 PM 18.9 °F - 11.8 °F 74% 30.04 in 4.0 mi Calm Calm - N/A Snow Light Snow
12:55 PM 19.4 °F 12.8 °F 12.6 °F 75% 30.03 in 3.0 mi SW 4.6 mph - N/A Snow Light Snow
1:14 PM 19.4 °F 8.6 °F 10.9 °F 70% 30.03 in 10.0 mi West 9.2 mph - N/A   Overcast
1:35 PM 19.2 °F 8.4 °F 10.8 °F 70% 30.03 in 10.0 mi West 9.2 mph - N/A Snow Light Snow
1:54 PM 19.8 °F 9.9 °F 10.8 °F 68% 30.04 in 10.0 mi WSW 8.1 mph - N/A Snow Light Snow
2:15 PM 19.6 °F 8.1 °F 10.9 °F 69% 30.04 in 10.0 mi WSW 10.4 mph 18.4 mph N/A   Overcast
2:34 PM 19.8 °F 9.1 °F 10.2 °F 67% 30.04 in 10.0 mi West 9.2 mph - N/A   Mostly Cloudy
2:55 PM 19.6 °F 8.9 °F 9.9 °F 66% 30.05 in 10.0 mi West 9.2 mph - N/A   Scattered Clouds
3:15 PM 19.9 °F 11.1 °F 10.0 °F 65% 30.04 in 10.0 mi West 6.9 mph - N/A   Clear
3:34 PM 20.1 °F 11.3 °F 9.7 °F 64% 30.05 in 10.0 mi WSW 6.9 mph - N/A   Clear
3:55 PM 19.4 °F 9.5 °F 9.5 °F 65% 30.06 in 10.0 mi WSW 8.1 mph - N/A   Clear
4:14 PM 18.9 °F 10.8 °F 9.3 °F 66% 30.06 in 10.0 mi WSW 5.8 mph - N/A   Clear
4:35 PM 19.4 °F 11.5 °F 9.5 °F 65% 30.05 in 10.0 mi WNW 5.8 mph - N/A   Clear
4:55 PM 19.6 °F 13.0 °F 9.5 °F 65% 30.05 in 10.0 mi West 4.6 mph - N/A   Clear
5:14 PM 18.7 °F 11.9 °F 9.3 °F 67% 30.06 in 10.0 mi West 4.6 mph - N/A   Clear
5:35 PM 16.3 °F - 8.4 °F 71% 30.05 in 10.0 mi Calm Calm - N/A   Clear
5:55 PM 12.0 °F - 5.7 °F 76% 30.06 in 10.0 mi Calm Calm - N/A   Clear
6:14 PM 8.1 °F - 4.3 °F 85% 30.06 in 10.0 mi Calm Calm - N/A   Clear
6:35 PM 6.3 °F - 3.0 °F 87% 30.07 in 10.0 mi Calm Calm - N/A   Clear
6:54 PM 2.1 °F - -0.8 °F 88% 30.07 in 10.0 mi Calm Calm - N/A   Clear
7:15 PM 5.4 °F - 2.5 °F 88% 30.07 in 10.0 mi Calm Calm - N/A   Clear
7:34 PM 1.6 °F - -0.8 °F 90% 30.07 in 10.0 mi Calm Calm - N/A   Clear
7:55 PM 3.9 °F - 1.4 °F 89% 30.08 in 10.0 mi Calm Calm - N/A   Clear
8:15 PM 0.5 °F - -1.8 °F 90% 30.07 in 10.0 mi Calm Calm - N/A   Clear
8:34 PM 0.3 °F - -1.8 °F 91% 30.08 in 10.0 mi Calm Calm - N/A   Clear
8:55 PM -0.9 °F - -3.3 °F 90% 30.07 in 10.0 mi Calm Calm - N/A   Clear
9:15 PM -0.0 °F - -2.6 °F 89% 30.07 in 10.0 mi Calm Calm - N/A   Clear
9:34 PM -1.3 °F - -4.0 °F 88% 30.08 in 10.0 mi Calm Calm - N/A   Clear
9:55 PM -2.7 °F - -5.8 °F 87% 30.08 in 10.0 mi Calm Calm - N/A   Clear
10:14 PM -2.0 °F - -4.5 °F 89% 30.08 in 10.0 mi Calm Calm - N/A   Clear
10:35 PM -2.6 °F - -5.4 °F 87% 30.10 in 10.0 mi Calm Calm - N/A   Clear
10:54 PM -3.5 °F - -6.7 °F 86% 30.10 in 10.0 mi Calm Calm - N/A   Clear
11:15 PM -4.5 °F - -7.8 °F 86% 30.10 in 10.0 mi Calm Calm - N/A   Clear
11:35 PM -3.5 °F - -6.3 °F 87% 30.10 in 10.0 mi Calm Calm - N/A   Clear
11:54 PM -4.5 °F - -7.6 °F 87% 30.10 in 10.0 mi Calm Calm - N/A   Clear